| time (UTC) | temp C | wind direction | speed KPH | gust KPH | rain 1hr cm | rain 24hr cm | rain mn cm | humidity % | barometer mb |
| 20260504140111 | 2 | 249 | 22.5 | 61.2 | 0.03 | 1.09 | 0.05 | 96 | 992.2 |
| 20260504090125 | 2 | 289 | 20.9 | 37.0 | 0.10 | 1.07 | 0.15 | 94 | 978.0 |
| 20260504081556 | 2 | 267 | 8.0 | 29.0 | 0.05 | 0.99 | 0.08 | 94 | 976.4 |
| 20260504044537 | 4 | 314 | 1.6 | 16.1 | 0.00 | 0.89 | 0.00 | 88 | 977.4 |
| 20260504043026 | 5 | 109 | 6.4 | 14.5 | 0.00 | 0.89 | 0.00 | 87 | 977.5 |
| 20260504041523 | 5 | 29 | 8.0 | 17.7 | 0.00 | 0.89 | 0.00 | 88 | 978.2 |
| 20260504040020 | 5 | 112 | 11.3 | 35.4 | 0.00 | 0.89 | 0.00 | 88 | 977.8 |
| 20260504034527 | 5 | 131 | 11.3 | 43.5 | 0.00 | 0.89 | 0.00 | 89 | 977.5 |
| 20260504033017 | 5 | 47 | 16.1 | 45.1 | 0.00 | 0.89 | 0.00 | 90 | 977.7 |
| 20260504031513 | 5 | 98 | 24.1 | 46.7 | 0.00 | 0.89 | 0.00 | 90 | 978.1 |
| 20260504030011 | 5 | 100 | 20.9 | 48.3 | 0.00 | 0.89 | 0.00 | 90 | 978.7 |
| 20260504024515 | 5 | 125 | 25.7 | 49.9 | 0.00 | 0.89 | 0.89 | 89 | 979.3 |
| 20260504023005 | 4 | 65 | 19.3 | 46.7 | 0.00 | 0.89 | 0.89 | 89 | 980.2 |
| 20260504021504 | 4 | 77 | 20.9 | 69.2 | 0.00 | 0.89 | 0.89 | 89 | 981.2 |
| 20260504020005 | 4 | 108 | 29.0 | 66.0 | 0.00 | 0.89 | 0.89 | 89 | 981.3 |
| 20260504014603 | 4 | 122 | 32.2 | 77.2 | 0.03 | 0.89 | 0.89 | 89 | 981.7 |
| 20260504013057 | 4 | 89 | 32.2 | 57.9 | 0.03 | 0.89 | 0.89 | 89 | 982.4 |
| 20260504011555 | 5 | 98 | 35.4 | 72.4 | 0.05 | 0.89 | 0.89 | 89 | 983.8 |
| 20260504010057 | 4 | 102 | 35.4 | 85.3 | 0.05 | 0.89 | 0.89 | 89 | 984.1 |
| 20260504004549 | 4 | 118 | 37.0 | 74.0 | 0.05 | 0.89 | 0.89 | 89 | 985.2 |
| 20260504003046 | 4 | 79 | 30.6 | 56.3 | 0.10 | 0.89 | 0.89 | 90 | 986.7 |
| 20260504001601 | 5 | 104 | 27.4 | 66.0 | 0.08 | 0.84 | 0.84 | 90 | 988.1 |
| 20260504000043 | 5 | 55 | 29.0 | 54.7 | 0.13 | 0.84 | 0.84 | 90 | 989.1 |
| 20260503234536 | 5 | 55 | 19.3 | 53.1 | 0.15 | 0.81 | 0.81 | 91 | 989.9 |
| 20260503233034 | 5 | 71 | 17.7 | 41.8 | 0.15 | 0.79 | 0.79 | 92 | 991.3 |
| 20260503231530 | 5 | 46 | 12.9 | 32.2 | 0.20 | 0.76 | 0.76 | 93 | 992.3 |
| 20260503230028 | 4 | 72 | 9.7 | 16.1 | 0.28 | 0.71 | 0.71 | 94 | 993.5 |
| 20260503224524 | 3 | 254 | 0.0 | 9.7 | 0.36 | 0.66 | 0.66 | 93 | 994.4 |
| 20260503223021 | 3 | 254 | 4.8 | 8.0 | 0.36 | 0.61 | 0.61 | 92 | 995.2 |
| 20260503221529 | 3 | 18 | 1.6 | 9.7 | 0.33 | 0.53 | 0.53 | 92 | 995.6 |
| 20260503220018 | 3 | 55 | 0.0 | 20.9 | 0.23 | 0.43 | 0.43 | 91 | 996.4 |
| 20260503214515 | 3 | 69 | 14.5 | 29.0 | 0.13 | 0.28 | 0.28 | 91 | 996.1 |
| 20260503213026 | 3 | 55 | 14.5 | 29.0 | 0.13 | 0.23 | 0.23 | 90 | 997.2 |
| 20260503211516 | 3 | 78 | 12.9 | 29.0 | 0.20 | 0.23 | 0.23 | 89 | 998.7 |
| 20260503210007 | 3 | 73 | 19.3 | 33.8 | 0.20 | 0.20 | 0.20 | 90 | 998.4 |
| 20260503204504 | 3 | 40 | 6.4 | 16.1 | 0.15 | 0.15 | 0.15 | 89 | 999.6 |
| 20260503203101 | 4 | 105 | 3.2 | 17.7 | 0.13 | 0.13 | 0.13 | 88 | 1000.1 |
| 20260503201600 | 4 | 65 | 9.7 | 16.1 | 0.03 | 0.03 | 0.03 | 86 | 1000.5 |
| 20260503200054 | 5 | 77 | 8.0 | 27.4 | 0.00 | 0.00 | 0.00 | 83 | 1001.5 |
| 20260503194551 | 5 | 103 | 17.7 | 29.0 | 0.00 | 0.00 | 0.00 | 78 | 1002.6 |
| 20260503193053 | 6 | 75 | 14.5 | 29.0 | 0.00 | 0.00 | 0.00 | 77 | 1002.9 |
| 20260503191545 | 6 | 90 | 17.7 | 30.6 | 0.00 | 0.00 | 0.00 | 73 | 1004.0 |
| 20260503190042 | 7 | 172 | 14.5 | 27.4 | 0.00 | 0.00 | 0.00 | 68 | 1004.5 |
| 20260503184541 | 8 | 101 | 14.5 | 29.0 | 0.00 | 0.00 | 0.00 | 64 | 1005.0 |
| 20260503183042 | 9 | 79 | 17.7 | 35.4 | 0.00 | 0.00 | 0.00 | 58 | 1005.4 |
| 20260503181612 | 10 | 114 | 17.7 | 30.6 | 0.00 | 0.00 | 0.00 | 54 | 1005.4 |
| 20260503180040 | 10 | 98 | 14.5 | 29.0 | 0.00 | 0.00 | 0.00 | 52 | 1005.5 |
| 20260503174532 | 10 | 89 | 14.5 | 35.4 | 0.00 | 0.00 | 0.00 | 49 | 1006.4 |
| 20260503173045 | 10 | 102 | 14.5 | 27.4 | 0.00 | 0.00 | 0.00 | 45 | 1006.7 |
| 20260503171528 | 10 | 162 | 12.9 | 27.4 | 0.00 | 0.00 | 0.00 | 47 | 1007.0 |